Regional Weather Roundup
Issued by NWS

Home | Current Version | Previous Version | Text Only | Print | Product List | Glossary Off
Versions: 1 2 3 4 5 6 7 8 9 10 11 12 13 14 15 16 17 18 19 20 21 22 23 24 25 26 27 28 29 30 31 32 33 34 35 36 37 38 39 40 41 42 43 44 45 46 47 48 49 50

000
ASUS43 KDTX 251701
RWRMI
MICHIGAN HOURLY REGIONAL WEATHER ROUNDUP
NATIONAL WEATHER SERVICE DETROIT/PONTIAC MI
100 PM EDT MON JUL 25 2016

NOTE: "FAIR" INDICATES FEW OR NO CLOUDS BELOW 12,000 FEET WITH NO
SIGNIFICANT WEATHER AND/OR OBSTRUCTION TO VISIBILITY.

MIZ047>049-052>055-059>063-066>070-074>076-081>083-251800-
SOUTHEAST LOWER MICHIGAN

CITY           SKY/WX    TMP DP  RH WIND       PRES   REMARKS
ADRIAN         MOSUNNY   83  72  69 SW7       29.97F
ALMA           SUNNY     84  66  53 MISG      29.95S
ANN ARBOR      MOSUNNY   87  67  51 W13G23    29.95S HX  90
BAD AXE        SUNNY     84  60  44 W10G16    29.92S
CARO           MOSUNNY   87  66  50 W9        29.92S
DETROIT CITY   MOSUNNY   86  68  54 W13       29.92S
DETROIT        PTSUNNY   90  66  45 W14G20    29.94S HX  92
FLINT          MOSUNNY   89  64  43 W14G20    29.93F HX  90
GROSSE ILE     CLOUDY    83  73  69 SW9       29.93S
HOWELL         PTSUNNY   86  64  47 NW8       29.96R

CITY           SKY/WX    TMP DP  RH WIND       PRES   REMARKS
JACKSON        MOSUNNY   83  67  58 NW10      29.97S
LAMBERTVILLE   CLOUDY    81  72  74 W7        29.97F
LANSING        MOSUNNY   84  64  50 W14       29.96S
LAPEER         FAIR      85  65  51 NW8       29.93S
MASON          MOSUNNY   85  65  51 W10       29.96S
MONROE         CLOUDY    82  75  79 SW12      29.94F
MT. CLEMENS    PTSUNNY   85  70  59 W8        29.90S HX  90
PONTIAC        PTSUNNY   86  66  51 W13       29.94R
PORT HURON     PTSUNNY   82  70  65 W7        29.91F
TRI CITIES     MOSUNNY   85  64  49 W15G26    29.93F
MIDLAND        NOT AVBL
TROY           MOSUNNY   88  64  44 NW12      29.95S
SAGINAW HB     MOSUNNY   86  63  45 W15G22    29.92S
$$
MIZ043>046-050>051-056>058-064>065-071>073-077>080-251800-
SOUTHWEST LOWER MICHIGAN

CITY           SKY/WX    TMP DP  RH WIND       PRES   REMARKS
BATTLE CREEK   MOSUNNY   81  66  60 NW10      29.99S
BENTON HARBOR  CLOUDY    80  66  62 VRB3      30.00S
BIG RAPIDS     MOSUNNY   81  62  51 NW9G23    29.97R
COLDWATER      CLOUDY    84  69  61 W7        29.99S
FREMONT        FAIR      82  64  53 NW9       29.97S
HOLLAND        SUNNY     81  68  64 W7        29.99S
GRAND RAPIDS   MOSUNNY   84  64  50 NW13      29.97S
IONIA          FAIR      83  62  48 W13       29.96R
KALAMAZOO      MOSUNNY   84  66  54 NW7       29.98S
LUDINGTON      SUNNY     79  67  66 W8        29.97R
MARSHALL       MOSUNNY   85  67  53 W10       29.98R
MOUNT PLEASANT MOSUNNY   84  63  47 NW8       29.94S
MUSKEGON       MOSUNNY   81  67  62 W9        29.98S
SOUTH HAVEN    SUNNY     79  66  65 NW7       30.00R
$$
MIZ016>042-251800-
NORTHERN LOWER MICHIGAN

CITY           SKY/WX    TMP DP  RH WIND       PRES   REMARKS
ALPENA         MOSUNNY   84  58  40 W13G21    29.87S
BEAVER ISLAND  MOSUNNY   77  64  64 NW9G16    29.91R
BELLAIRE       SUNNY     79  60  52 W10       29.93R
CADILLAC       MOSUNNY   81  59  47 W14G22    29.96S
CHARLEVOIX     SUNNY     76  64  65 W15       29.95R
FRANKFORT      SUNNY     78  64  62 W10       29.95S
GAYLORD        SUNNY     79  56  45 W17G25    29.93R
GRAYLING       MOSUNNY   82  60  48 W15G22    29.94S
HARBOR SPRINGS PTSUNNY   73  65  75 W10G18    29.91R
HOUGHTON LAKE  MOSUNNY   82  60  47 W16G23    29.94S
MANISTEE       SUNNY     78  64  61 W10       29.96S
OSCODA         PTSUNNY   87  59  39 W15G22    29.88S
PELLSTON       PTSUNNY   76  60  57 NW14      29.90S
ROGERS CITY    PTSUNNY   82  60  46 W10G20    29.88R
TRAVERSE CITY  MOSUNNY   84  55  36 NW16G24   29.91S
$$
MIZ007>008-015-251800-
EASTERN UPPER MICHIGAN

CITY           SKY/WX    TMP DP  RH WIND       PRES   REMARKS
KINROSS        CLOUDY    73  62  68 NW16      29.87S
MACKINAC ISLAN CLOUDY    74  63  66 W16G24    29.88S
S. S. MARIE    CLOUDY    72  62  71 NW12G18   29.87R
MUNISING         N/A     71  61  70 NW18G26   29.92S
$$
MIZ004>006-011>014-085-251800-
CENTRAL UPPER MICHIGAN

CITY           SKY/WX    TMP DP  RH WIND       PRES   REMARKS
MANISTIQUE     PTSUNNY   77  63  61 NW10G16   29.90R
ESCANABA       MOSUNNY   81  59  47 NW16      29.90R
MENOMINEE        N/A    N/A N/A N/A MISG        N/A
SAWYER-GWINN   MOSUNNY   75  54  46 NW17G25   29.95R
$$
MIZ001>003-009>011-084-251800-
WESTERN UPPER MICHIGAN

CITY           SKY/WX    TMP DP  RH WIND       PRES   REMARKS
IRON MOUNTAIN  MOSUNNY   79  55  43 NW17G31   29.96R
HOUGHTON       SUNNY     73  57  57 W17G26    29.96R
COPPER HARBOR    N/A     73  57  57 NW14G24   29.92R
IRONWOOD       SUNNY     73  57  56 NW12      30.00S
$$

ABBREVIATIONS USED IN REMARKS
   TC - TEMPERATURE IN CELSIUS
  WCI - WIND CHILL INDEX
   HX - HEAT INDEX
  VSB - VISIBILITY





USA.gov is the U.S. government's official web portal to all federal, state and local government web resources and services.